This is the latest recevied weather packets stored in our database for station/object KE0PRS. If no packets are shown the sender has not sent any weather packets the latest 10 day(s).
| Time | Temp. | Humidity | Pressure | Rain* | Wind** | Luminosity | Snow |
|---|---|---|---|---|---|---|---|
| 1777911631 | 26.11° C | 28% | 1005 hPa | 0 mm | - | 593 W/m² | - |
| 1777911327 | 26.67° C | 28% | 1004.9 hPa | 0 mm | - | 593 W/m² | - |
| 1777911026 | 26.11° C | 28% | 1005 hPa | 0 mm | - | 570 W/m² | - |
| 1777910723 | 25.56° C | 29% | 1004.9 hPa | 0 mm | - | 611 W/m² | - |
| 1777910419 | 25.56° C | 30% | 1004.8 hPa | 0 mm | - | 600 W/m² | - |
| 1777910116 | 25.56° C | 29% | 1005 hPa | 0 mm | - | 593 W/m² | - |
| 1777909814 | 25.56° C | 30% | 1004.6 hPa | 0 mm | - | 580 W/m² | - |
| 1777909510 | 25.56° C | 31% | 1004.8 hPa | 0 mm | - | 565 W/m² | - |
| 1777909208 | 25° C | 30% | 1004.5 hPa | 0 mm | - | 542 W/m² | - |
| 1777908905 | 24.44° C | 31% | 1004.5 hPa | 0 mm | - | 527 W/m² | - |
| 1777908603 | 24.44° C | 32% | 1004.5 hPa | 0 mm | - | 505 W/m² | - |
| 1777908299 | 23.89° C | 33% | 1004.5 hPa | 0 mm | - | 489 W/m² | - |
| 1777907995 | 23.89° C | 34% | 1004.6 hPa | 0 mm | - | 475 W/m² | - |
| 1777907691 | 22.78° C | 34% | 1004.4 hPa | 0 mm | - | 453 W/m² | - |
| 1777907386 | 22.78° C | 34% | 1004.7 hPa | 0 mm | - | 438 W/m² | - |
| 1777907083 | 22.22° C | 37% | 1004.7 hPa | 0 mm | - | 422 W/m² | - |
| 1777906781 | 21.67° C | 37% | 1004.6 hPa | 0 mm | - | 395 W/m² | - |
| 1777906478 | 21.67° C | 36% | 1004.8 hPa | 0 mm | - | 383 W/m² | - |
| 1777906174 | 21.11° C | 37% | 1004.5 hPa | 0 mm | - | 371 W/m² | - |
| 1777905871 | 21.11° C | 38% | 1004.6 hPa | 0 mm | - | 357 W/m² | - |
| 1777905568 | 20.56° C | 38% | 1004.6 hPa | 0 mm | - | 345 W/m² | - |
| 1777905265 | 20.56° C | 40% | 1004.8 hPa | 0 mm | - | 325 W/m² | - |
| 1777904962 | 20° C | 40% | 1004.5 hPa | 0 mm | - | 314 W/m² | - |
| 1777904659 | 19.44° C | 40% | 1004.7 hPa | 0 mm | - | 299 W/m² | - |
| 1777904356 | 19.44° C | 41% | 1005 hPa | 0 mm | - | 284 W/m² | - |
* Rain latest hour (hover to see other rain measurements)
** Current wind speed in m/s (hover to see current wind gust speed)